Regional Weather Roundup
Issued by NWS

Home | Current Version | Previous Version | Text Only | Print | Product List | Glossary On
Versions: 1 2 3 4 5 6 7 8 9 10 11 12 13 14 15 16 17 18 19 20 21 22 23 24 25 26 27 28 29 30 31 32 33 34 35 36 37 38 39 40 41 42 43 44 45 46 47 48 49 50
000
ASUS44 KMEG 301310
RWRTN
TENNESSEE HOURLY STATE WEATHER ROUNDUP
NATIONAL WEATHER SERVICE MEMPHIS TN
800 AM CDT SAT AUG 30 2014

TNZ002-004-019-021-049-052-054-088>092-301400-
WEST TENNESSEE

CITY           SKY/WX    TMP DP  RH WIND       PRES   REMARKS
MEMPHIS INTL   LGT RAIN  78  73  84 S6        30.03R
NWS MEMPHIS      N/A     74 N/A N/A MISG        N/A
JACKSON        CLOUDY    73  70  90 S8        30.05R
DYERSBURG      CLOUDY    75  63  64 CALM      30.03S
UNION CITY     SUNNY     73  70  88 CALM      30.01S
PARIS          SUNNY     73  66  78 S6        30.04R
HUNTINGDON     CLOUDY    72  66  81 S7        30.05R
LEXINGTON      CLOUDY    72  68  88 SW8       30.07R
SAVANNAH       CLOUDY    72  72 100 CALM      30.09S
$$

TNZ008-025-027-028-033-062-065-066-301400-
NORTH MIDDLE TENNESSEE

CITY           SKY/WX    TMP DP  RH WIND       PRES   REMARKS
NASHVILLE      PTSUNNY   75  66  73 S5        30.07S
DICKSON        PTSUNNY   75  64  69 SW6       30.06S
PORTLAND       MOSUNNY   73  64  73 S8        30.06S
CLARKSVILLE    PTSUNNY   75  67  76 S3        30.04S
LEBANON        PTSUNNY   72  65  78 CALM      30.06S
SMYRNA         CLOUDY    73  67  81 CALM      30.08S
COOKEVILLE     SUNNY     73  66  78 SE3       30.11S
GALLATIN       PTSUNNY   72  69  90 E3        30.08F
CROSSVILLE     PTSUNNY   75  62  64 VRB3      30.18R
$$

TNZ061-075-076-078-094-096-097-301400-
SOUTH MIDDLE TENNESSEE

CITY           SKY/WX    TMP DP  RH WIND       PRES   REMARKS
LEWISBURG      PTSUNNY   70  66  86 CALM      30.08R
FAYETTEVILLE   SUNNY     73  63  68 S6        30.11R
TULLAHOMA      SUNNY     73  64  73 S3        30.12S
WINCHESTER     MOSUNNY   75  64  69 CALM      30.11S
MCMINNVILLE    SUNNY     72  72 100 CALM      30.12R
COLUMBIA         N/A     73  72  94 CALM      30.07R
SHELBYVILLE    SUNNY     73  68  83 E5        30.10S
$$

TNZ017-018-042-046-047-301400-
NORTHEAST TENNESSEE

CITY           SKY/WX    TMP DP  RH WIND       PRES   REMARKS
TRI CITIES     SUNNY     72  66  81 NE3       30.21S
ELIZABETHTON   SUNNY     72  64  78 E5        30.22S
$$

TNZ012-013-036-069-073-074-301400-
CENTRAL EAST TENNESSEE

CITY           SKY/WX    TMP DP  RH WIND       PRES   REMARKS
KNOXVILLE      PTSUNNY   71  66  84 CALM      30.14S
OAK RIDGE      PTSUNNY   72  69  90 CALM      30.16S
GATLINBURG     PTSUNNY   73  64  73 CALM      30.15S
MORRISTOWN     SUNNY     73  68  83 E6        30.18S
$$

TNZ083-085-099-301400-
SOUTHEAST TENNESSEE

CITY           SKY/WX    TMP DP  RH WIND       PRES   REMARKS
CHATTANOOGA    PTSUNNY   76  66  71 CALM      30.13R
$$

SKY/WX REPORTED AS FAIR MEANS FEW OR NO CLOUDS BELOW
12 THOUSAND FEET.



USA.gov is the U.S. government's official web portal to all federal, state and local government web resources and services.